[[{"header":{"parameterUnit":"m.s-1","parameterCategory":1,"la1":30.2991,"la2":30.254,"lo1":-89.0895,"lo2":-89.0444,"dy":0.0017,"dx":0.0017,"nx":28,"ny":28,"refTime":"2024-06-10T21:00:00:Z","depth":0,"parameterNumber":2,"parameterNumberName":"U-component_of_WINDS"},"data":[0,0,0,0,0,0,0,0,0,0,0,0,0,0,0,0,0,0,0,0,0,0,0,0,0,0,0,0,0,0,0,0,0,0,0,0,0,0,0,0,0,0,0,0,0,0,0,0,0,0,0,0,0,0,0,0,0,0,-2.792,-2.792,0,-2.7875,-2.7874,-2.7873,-2.7768,-2.7766,-2.7763,-2.7761,-2.7718,-2.7719,-2.772,0,0,0,0,0,0,0,0,0,0,0,0,0,-2.7921,-2.7922,-2.792,-2.792,-2.7919,-2.7875,-2.7874,-2.7873,-2.7768,-2.7766,-2.7763,-2.776,-2.7718,-2.7719,-2.772,0,0,0,0,0,0,0,0,0,0,0,0,0,-2.7903,-2.7922,-2.792,-2.7861,-2.7855,-2.7875,-2.7874,-2.7873,-2.7769,-2.7766,-2.7762,-2.7759,-2.7718,-2.7719,-2.772,-2.7795,0,0,-2.7724,-2.7725,0,0,0,0,0,0,0,0,-2.7904,-2.7903,-2.787,-2.7865,-2.7859,-2.7823,-2.7858,-2.7847,-2.777,-2.7802,-2.7761,-2.7758,-2.7756,-2.7754,-2.7753,-2.7793,-2.7791,-2.7725,-2.7725,-2.7726,-2.7726,0,0,0,0,0,0,0,-2.7905,-2.7904,-2.7902,-2.787,-2.7863,-2.7838,-2.7832,-2.7856,-2.7798,-2.7799,-2.7791,-2.7787,-2.7752,-2.7752,-2.7751,-2.779,-2.7725,-2.7726,-2.7727,-2.7727,-2.7891,-2.7894,0,0,0,0,0,0,-2.7915,-2.7906,-2.7904,-2.7901,-2.7874,-2.7841,-2.7834,-2.7838,-2.7798,-2.7788,-2.779,-2.7782,-2.7751,-2.775,-2.7749,-2.7835,-2.7726,-2.7727,-2.7728,-2.7888,-2.7892,-2.7896,0,0,0,0,0,0,-2.7915,-2.7915,-2.7905,-2.7901,-2.7898,-2.7845,-2.785,-2.7839,-2.7838,-2.7791,-2.778,-2.7799,-2.7749,-2.7747,-2.7784,-2.7832,-2.7728,-2.7729,-2.7883,-2.7889,-2.7894,-2.8007,0,0,0,0,0,0,-2.7915,-2.7916,-2.7943,-2.7903,-2.7899,-2.794,-2.7853,-2.7841,-2.784,-2.783,-2.7797,-2.7788,-2.7746,-2.7783,-2.7786,-2.7832,-2.773,-2.7879,-2.7886,-2.7892,-2.7999,-2.8015,-2.803,0,0,0,0,0,-2.7916,-2.7976,-2.7944,-2.7945,-2.793,-2.7943,-2.7941,-2.789,-2.7845,-2.7872,-2.7842,-2.779,-2.7826,-2.7788,-2.779,-2.7837,-2.7876,-2.7884,-2.7892,-2.7992,-2.8012,-2.8029,0,0,0,0,0,0,-2.8024,-2.797,-2.7934,-2.7983,-2.7969,-2.7925,-2.7957,-2.7913,-2.7911,-2.7902,-2.7839,-2.7833,-2.7879,-2.7862,-2.782,-2.7908,-2.7843,-2.7852,-2.7918,-2.7937,-2.7952,-2.7956,-2.7731,0,0,0,0,0,-2.8053,-2.8067,-2.8019,-2.8068,-2.8062,-2.8012,-2.8015,-2.7977,-2.796,-2.7953,-2.7926,-2.7912,-2.7921,-2.7928,-2.7933,-2.7995,-2.7988,-2.803,-2.8045,-2.8058,-2.8067,-2.8101,-2.812,-2.7922,-2.7922,-2.7922,0,0,-2.8115,-2.8087,-2.8099,-2.8089,-2.8073,-2.809,-2.8007,-2.8028,-2.8041,-2.7957,-2.799,-2.797,-2.7951,-2.8002,-2.8023,-2.7989,-2.812,-2.8068,-2.8079,-2.8081,-2.8111,-2.813,-2.8147,-2.7927,-2.7926,-2.7925,0,0,-2.8235,-2.8215,-2.8253,-2.8239,-2.8216,-2.8183,-2.8192,-2.8156,-2.8139,-2.8172,-2.811,-2.8125,-2.814,-2.813,-2.8127,-2.8246,-2.8199,-2.825,-2.8331,-2.8366,-2.8381,-2.8395,-2.8439,-2.8456,-2.8258,-2.8259,-2.8259,0,-2.8315,-2.8336,-2.8279,-2.8305,-2.8303,-2.8227,-2.8268,-2.8257,-2.8238,-2.8239,-2.8201,-2.822,-2.8202,-2.8251,-2.828,-2.8279,-2.829,-2.8253,-2.8383,-2.8396,-2.8408,-2.845,-2.8467,-2.8265,-2.8264,-2.8264,-2.8263,0,-2.8436,-2.8453,-2.8487,-2.847,-2.8472,-2.8505,-2.8454,-2.8464,-2.8426,-2.8397,-2.8433,-2.8408,-2.8408,-2.8417,-2.838,-2.8461,-2.8441,-2.8394,-2.8327,-2.8434,-2.8473,-2.8488,-2.8274,-2.8272,-2.827,-2.8268,0,0,-2.8623,-2.8575,-2.8588,-2.858,-2.855,-2.8563,-2.8594,-2.8593,-2.8603,-2.8593,-2.8618,-2.8634,-2.8591,-2.8588,-2.855,-2.858,-2.8679,-2.8529,-2.8528,-2.8559,-2.8769,-2.8806,-2.8825,-2.8647,-2.865,-2.8652,-2.8771,0,-2.8737,-2.8785,-2.8736,-2.8795,-2.8811,-2.874,-2.8767,-2.8753,-2.8727,-2.8738,-2.871,-2.8723,-2.8664,-2.8662,-2.8689,-2.8661,-2.872,-2.8651,-2.8672,-2.8674,-2.8681,-2.8845,-2.8883,-2.8997,-2.8786,-2.8788,-2.879,0,-2.8877,-2.8873,-2.8934,-2.8902,-2.8906,-2.8931,-2.8928,-2.8939,-2.8922,-2.8902,-2.8899,-2.8853,-2.8883,-2.8817,-2.8859,-2.8814,-2.882,-2.8808,-2.8811,-2.8812,-2.8739,-2.8852,-2.9031,-2.905,-2.8813,-2.8811,-2.8809,0,-2.9009,-2.9019,-2.9057,-2.9052,-2.9016,-2.9035,-2.9021,-2.9001,-2.9005,-2.9002,-2.9004,-2.9006,-2.9008,-2.9011,-2.8968,-2.8923,-2.9016,-2.8946,-2.9002,-2.9003,-2.9025,-2.9025,-2.921,-2.9027,-2.9027,-2.9026,-2.9026,0,-2.9143,-2.9183,-2.9116,-2.914,-2.9184,-2.9128,-2.9174,-2.9152,-2.9136,-2.9155,-2.9094,-2.9115,-2.9055,-2.907,-2.9037,-2.9078,-2.9079,-2.9065,-2.9056,-2.9071,-2.9073,-2.9075,-2.9067,-2.9031,-2.903,-2.9029,-2.9028,0,-2.9299,-2.9255,-2.9292,-2.9255,-2.9246,-2.9281,-2.9249,-2.9271,-2.9242,-2.9268,-2.9271,-2.9226,-2.924,-2.9197,-2.9205,-2.9182,-2.9243,-2.922,-2.9249,-2.9242,-2.9302,-2.9298,-2.9496,-2.952,-2.932,-2.9322,-2.9324,0,-2.9387,-2.9417,-2.9383,-2.9391,-2.938,-2.9394,-2.9398,-2.9344,-2.9351,-2.9336,-2.936,-2.9369,-2.9374,-2.9401,-2.937,-2.9376,-2.9354,-2.9423,-2.9355,-2.937,-2.9358,-2.9357,-2.9361,-2.9438,-2.944,-2.9442,-2.9444,0,-2.955,-2.9528,-2.9534,-2.9534,-2.954,-2.9537,-2.9531,-2.9542,-2.9485,-2.9495,-2.9509,-2.9513,-2.9521,-2.9532,-2.9532,-2.952,-2.9474,-2.9466,-2.9479,-2.9496,-2.9512,-2.9507,-2.9289,-2.9462,-2.946,-2.9459,-2.9458,-2.9457,-2.9676,-2.97,-2.968,-2.969,-2.9679,-2.9675,-2.9694,-2.9668,-2.9678,-2.968,-2.9648,-2.9669,-2.9655,-2.965,-2.9642,-2.9659,-2.9628,-2.9647,-2.9652,-2.9658,-2.9669,-2.9509,-2.9659,-2.9658,-2.9658,-2.9657,-2.9657,0,-2.9837,-2.9821,-2.9831,-2.9824,-2.9833,-2.9787,-2.9778,-2.9789,-2.9808,-2.9798,-2.9804,-2.9821,-2.9832,-2.9803,-2.981,-2.983,-2.9809,-2.9834,-2.9833,-2.9831,-2.9696,-2.9684,-2.9851,-2.9851,-2.985,-2.985,-2.985,-2.985,-2.9922,-2.996,-2.9936,-2.997,-2.9954,-2.9973,-2.9973,-2.997,-2.9961,-2.9983,-2.9992,-2.9972,-2.9955,-2.9961,-2.997,-2.9961,-2.9967,-3.0,-2.9984,-2.9859,-2.984,-2.9822,-2.9811,-3.0001,-3.0001,-3.0118,-3.0119,-3.012]},{"header":{"parameterUnit":"m.s-1","parameterCategory":1,"la1":30.2991,"la2":30.254,"lo1":-89.0895,"lo2":-89.0444,"dy":0.0017,"dx":0.0017,"nx":28,"ny":28,"refTime":"2024-06-10T21:00:00:Z","depth":0,"parameterNumber":3,"parameterNumberName":"V-component_of_WINDS"},"data":[0,0,0,0,0,0,0,0,0,0,0,0,0,0,0,0,0,0,0,0,0,0,0,0,0,0,0,0,0,0,0,0,0,0,0,0,0,0,0,0,0,0,0,0,0,0,0,0,0,0,0,0,0,0,0,0,0,0,0.2914,0.2914,0,0.292,0.292,0.292,0.2925,0.2925,0.2925,0.2926,0.2932,0.2932,0.2932,0,0,0,0,0,0,0,0,0,0,0,0,0,0.2906,0.2906,0.2914,0.2914,0.2914,0.292,0.292,0.292,0.2925,0.2925,0.2925,0.2926,0.2932,0.2932,0.2932,0,0,0,0,0,0,0,0,0,0,0,0,0,0.2911,0.2906,0.2914,0.2917,0.2918,0.292,0.292,0.292,0.2925,0.2925,0.2925,0.2926,0.2932,0.2932,0.2932,0.2931,0,0,0.2932,0.2932,0,0,0,0,0,0,0,0,0.291,0.2911,0.2917,0.2917,0.2918,0.2922,0.292,0.2924,0.2925,0.2922,0.2926,0.2926,0.2928,0.2929,0.293,0.2931,0.2932,0.2932,0.2932,0.2933,0.2933,0,0,0,0,0,0,0,0.291,0.2911,0.2916,0.2917,0.2917,0.2918,0.2919,0.292,0.2925,0.2923,0.2923,0.2924,0.2929,0.293,0.293,0.2932,0.2932,0.2932,0.2933,0.2933,0.2933,0.2933,0,0,0,0,0,0,0.2909,0.291,0.2916,0.2917,0.2914,0.2918,0.2919,0.292,0.2925,0.2926,0.2924,0.2924,0.2929,0.293,0.293,0.2929,0.2933,0.2933,0.2933,0.2933,0.2933,0.2933,0,0,0,0,0,0,0.2909,0.291,0.2916,0.2914,0.2914,0.2919,0.292,0.2921,0.2922,0.2926,0.2926,0.2924,0.2929,0.293,0.2931,0.293,0.2933,0.2933,0.2933,0.2933,0.2933,0.2928,0,0,0,0,0,0,0.2909,0.291,0.291,0.2914,0.2915,0.2917,0.292,0.2921,0.2922,0.2922,0.2926,0.2927,0.2929,0.293,0.2931,0.293,0.2933,0.2933,0.2933,0.2933,0.2928,0.2927,0.2927,0,0,0,0,0,0.2908,0.2908,0.291,0.291,0.2915,0.2917,0.2917,0.292,0.2922,0.2922,0.2924,0.2927,0.293,0.2931,0.2931,0.293,0.2933,0.2933,0.2933,0.2928,0.2928,0.2927,0,0,0,0,0,0,0.2904,0.2909,0.291,0.2911,0.2913,0.2917,0.2917,0.292,0.2921,0.2922,0.2926,0.2926,0.2927,0.2928,0.2929,0.2929,0.2932,0.2932,0.2928,0.2927,0.2927,0.2926,0.2933,0,0,0,0,0,0.2903,0.2904,0.2908,0.2909,0.291,0.2913,0.2914,0.2916,0.2919,0.292,0.2922,0.2925,0.2926,0.2927,0.2928,0.2928,0.2929,0.2928,0.2927,0.2927,0.2927,0.2926,0.2926,0.2932,0.2932,0.2932,0,0,0.2901,0.2904,0.2904,0.2908,0.291,0.2911,0.2914,0.2915,0.2916,0.292,0.2921,0.2923,0.2925,0.2926,0.2926,0.2927,0.2925,0.2927,0.2926,0.2926,0.2926,0.2925,0.2925,0.2932,0.2932,0.2932,0,0,0.2898,0.2901,0.2901,0.2903,0.2906,0.2908,0.2908,0.2911,0.2913,0.2914,0.2917,0.2918,0.292,0.2922,0.2923,0.292,0.2922,0.292,0.2917,0.2917,0.2917,0.2916,0.2915,0.2914,0.292,0.292,0.292,0,0.2896,0.2897,0.2901,0.2901,0.2903,0.2906,0.2906,0.2908,0.2911,0.2912,0.2913,0.2916,0.2918,0.2919,0.2918,0.2919,0.2919,0.292,0.2916,0.2916,0.2916,0.2914,0.2914,0.292,0.292,0.292,0.292,0,0.2894,0.2895,0.2895,0.2897,0.2899,0.2899,0.2902,0.2903,0.2905,0.2907,0.2908,0.291,0.2912,0.2912,0.2915,0.2913,0.2914,0.2916,0.2918,0.2915,0.2913,0.2913,0.292,0.292,0.292,0.292,0,0,0.2888,0.2893,0.2893,0.2894,0.2897,0.2898,0.2898,0.29,0.29,0.2902,0.2902,0.2904,0.2906,0.2907,0.2909,0.2909,0.2906,0.2911,0.2911,0.291,0.2904,0.2902,0.2902,0.2907,0.2907,0.2907,0.2904,0,0.2886,0.2887,0.289,0.289,0.289,0.2894,0.2894,0.2896,0.2898,0.2898,0.29,0.2901,0.2904,0.2905,0.2904,0.2906,0.2905,0.2907,0.2907,0.2907,0.2906,0.2901,0.2899,0.2896,0.2903,0.2903,0.2903,0,0.2883,0.2885,0.2885,0.2887,0.2888,0.2888,0.2889,0.289,0.2892,0.2894,0.2895,0.2897,0.2897,0.29,0.29,0.2901,0.2901,0.2902,0.2902,0.2902,0.2905,0.2901,0.2895,0.2894,0.2902,0.2902,0.2903,0,0.2879,0.2881,0.2881,0.2882,0.2885,0.2885,0.2886,0.2888,0.2889,0.289,0.2891,0.2892,0.2893,0.2894,0.2896,0.2898,0.2896,0.2899,0.2897,0.2897,0.2896,0.2896,0.289,0.2897,0.2897,0.2897,0.2897,0,0.2875,0.2875,0.2879,0.2879,0.2879,0.2882,0.2881,0.2883,0.2885,0.2885,0.2888,0.2888,0.2891,0.2892,0.2894,0.2893,0.2894,0.2895,0.2895,0.2894,0.2894,0.2894,0.2895,0.2897,0.2897,0.2897,0.2897,0,0.2871,0.2873,0.2873,0.2876,0.2877,0.2876,0.2879,0.2879,0.2881,0.2881,0.2881,0.2884,0.2885,0.2887,0.2889,0.289,0.2889,0.289,0.2888,0.2888,0.2886,0.2886,0.288,0.2879,0.2887,0.2886,0.2886,0,0.2868,0.2868,0.2871,0.2871,0.2872,0.2873,0.2873,0.2876,0.2877,0.2878,0.2878,0.2879,0.288,0.2881,0.2883,0.2884,0.2885,0.2882,0.2885,0.2884,0.2884,0.2884,0.2884,0.2882,0.2882,0.2881,0.2881,0,0.2864,0.2865,0.2866,0.2867,0.2867,0.2868,0.2869,0.2869,0.2872,0.2873,0.2873,0.2874,0.2875,0.2876,0.2877,0.2878,0.288,0.2881,0.288,0.2879,0.2878,0.2878,0.2886,0.2881,0.2881,0.2881,0.2881,0.2881,0.286,0.286,0.2861,0.2862,0.2863,0.2864,0.2864,0.2865,0.2866,0.2867,0.2869,0.2869,0.287,0.2872,0.2873,0.2873,0.2874,0.2874,0.2873,0.2873,0.2872,0.2878,0.2873,0.2873,0.2873,0.2873,0.2873,0,0.2855,0.2856,0.2857,0.2858,0.2858,0.286,0.2861,0.2862,0.2862,0.2863,0.2863,0.2864,0.2864,0.2866,0.2867,0.2866,0.2867,0.2866,0.2866,0.2866,0.2872,0.2872,0.2866,0.2866,0.2866,0.2866,0.2866,0.2866,0.2853,0.2853,0.2854,0.2854,0.2855,0.2855,0.2855,0.2856,0.2857,0.2857,0.2857,0.2858,0.286,0.286,0.2861,0.2861,0.2861,0.286,0.2861,0.2865,0.2866,0.2867,0.2867,0.286,0.286,0.2855,0.2855,0.2855]}]]